| time (UTC) | temp C | wind direction | speed KPH | gust KPH | rain 1hr cm | rain 24hr cm | rain mn cm | humidity % | barometer mb |
| 20260502232214 | 7 | 213 | 0.0 | 3.2 | 0.00 | 0.00 | 0.00 | 93 | 967.1 |
| 20260502231505 | 7 | 204 | 0.0 | 3.2 | 0.00 | 0.00 | 0.00 | 93 | 967.4 |
| 20260502231005 | 7 | 204 | 0.0 | 3.2 | 0.00 | 0.00 | 0.00 | 93 | 967.4 |
| 20260502230503 | 7 | 162 | 0.0 | 1.6 | 0.00 | 0.00 | 0.00 | 92 | 967.2 |
| 20260502225503 | 7 | 192 | 0.0 | 1.6 | 0.00 | 0.00 | 0.00 | 92 | 967.5 |
| 20260502225003 | 7 | 183 | 0.0 | 1.6 | 0.00 | 0.00 | 0.00 | 92 | 967.3 |
| 20260502224505 | 7 | 185 | 0.0 | 3.2 | 0.00 | 0.00 | 0.00 | 91 | 967.3 |
| 20260502224003 | 7 | 202 | 0.0 | 3.2 | 0.00 | 0.00 | 0.00 | 91 | 967.5 |
| 20260502223505 | 7 | 210 | 0.0 | 4.8 | 0.00 | 0.00 | 0.00 | 91 | 967.4 |
| 20260502223003 | 7 | 205 | 1.6 | 4.8 | 0.00 | 0.00 | 0.00 | 92 | 967.4 |
| 20260502222503 | 7 | 186 | 0.0 | 3.2 | 0.00 | 0.00 | 0.00 | 91 | 967.4 |
| 20260502222005 | 7 | 0 | 0.0 | 0.0 | 0.00 | 0.00 | 0.00 | 91 | 967.4 |
| 20260502221712 | 7 | 0 | 0.0 | 0.0 | 0.00 | 0.00 | 0.00 | 90 | 967.5 |
| 20260502221215 | 7 | 0 | 0.0 | 0.0 | 0.00 | 0.00 | 0.00 | 90 | 967.4 |
| 20260502220503 | 7 | 0 | 0.0 | 0.0 | 0.00 | 0.00 | 0.00 | 90 | 967.5 |
| 20260502215503 | 8 | 0 | 0.0 | 0.0 | 0.00 | 0.00 | 0.00 | 90 | 967.6 |
| 20260502215005 | 8 | 0 | 0.0 | 0.0 | 0.00 | 0.00 | 0.00 | 89 | 967.4 |
| 20260502214503 | 8 | 210 | 0.0 | 3.2 | 0.00 | 0.00 | 0.00 | 89 | 967.3 |
| 20260502214003 | 8 | 210 | 0.0 | 3.2 | 0.00 | 0.00 | 0.00 | 89 | 967.3 |
| 20260502213505 | 8 | 208 | 0.0 | 1.6 | 0.00 | 0.00 | 0.00 | 89 | 967.3 |
| 20260502213003 | 8 | 205 | 0.0 | 1.6 | 0.00 | 0.00 | 0.00 | 89 | 967.5 |
| 20260502212504 | 8 | 208 | 0.0 | 3.2 | 0.00 | 0.00 | 0.00 | 88 | 967.4 |
| 20260502212004 | 8 | 210 | 0.0 | 3.2 | 0.00 | 0.00 | 0.00 | 88 | 967.5 |
| 20260502211505 | 8 | 214 | 0.0 | 3.2 | 0.00 | 0.00 | 0.00 | 89 | 967.3 |
| 20260502211004 | 8 | 0 | 0.0 | 0.0 | 0.00 | 0.00 | 0.00 | 89 | 967.3 |
| 20260502210503 | 8 | 0 | 0.0 | 0.0 | 0.00 | 0.00 | 0.00 | 89 | 967.3 |
| 20260502205503 | 8 | 0 | 0.0 | 0.0 | 0.00 | 0.00 | 0.00 | 89 | 967.3 |
| 20260502205003 | 8 | 0 | 0.0 | 0.0 | 0.00 | 0.00 | 0.00 | 88 | 967.3 |
| 20260502204714 | 8 | 0 | 0.0 | 0.0 | 0.00 | 0.00 | 0.00 | 88 | 967.1 |
| 20260502204003 | 8 | 196 | 0.0 | 3.2 | 0.00 | 0.00 | 0.00 | 88 | 967.2 |
| 20260502203503 | 9 | 208 | 0.0 | 3.2 | 0.00 | 0.00 | 0.00 | 87 | 967.4 |
| 20260502203005 | 9 | 208 | 0.0 | 3.2 | 0.00 | 0.00 | 0.00 | 87 | 967.4 |
| 20260502202503 | 9 | 205 | 0.0 | 3.2 | 0.00 | 0.00 | 0.00 | 86 | 967.2 |
| 20260502202215 | 9 | 207 | 1.6 | 4.8 | 0.00 | 0.00 | 0.00 | 86 | 967.3 |
| 20260502201503 | 9 | 210 | 0.0 | 4.8 | 0.00 | 0.00 | 0.00 | 86 | 967.6 |
| 20260502201003 | 9 | 206 | 0.0 | 1.6 | 0.00 | 0.00 | 0.00 | 86 | 967.2 |
| 20260502200505 | 9 | 207 | 0.0 | 3.2 | 0.00 | 0.00 | 0.00 | 86 | 967.2 |
| 20260502195503 | 10 | 189 | 1.6 | 4.8 | 0.00 | 0.00 | 0.00 | 84 | 967.3 |
| 20260502195005 | 10 | 197 | 0.0 | 4.8 | 0.00 | 0.00 | 0.00 | 84 | 967.2 |
| 20260502194503 | 10 | 198 | 0.0 | 4.8 | 0.00 | 0.00 | 0.00 | 85 | 967.1 |
| 20260502194005 | 10 | 192 | 1.6 | 4.8 | 0.00 | 0.00 | 0.00 | 85 | 967.3 |
| 20260502193503 | 10 | 193 | 0.0 | 4.8 | 0.00 | 0.00 | 0.00 | 82 | 967.1 |
| 20260502193003 | 10 | 198 | 0.0 | 3.2 | 0.00 | 0.00 | 0.00 | 83 | 967.0 |
| 20260502192715 | 10 | 199 | 0.0 | 3.2 | 0.00 | 0.00 | 0.00 | 83 | 967.0 |
| 20260502192003 | 10 | 209 | 1.6 | 3.2 | 0.00 | 0.00 | 0.00 | 83 | 967.1 |
| 20260502191503 | 10 | 207 | 0.0 | 3.2 | 0.00 | 0.00 | 0.00 | 84 | 967.0 |
| 20260502191005 | 10 | 212 | 1.6 | 3.2 | 0.00 | 0.00 | 0.00 | 83 | 967.0 |
| 20260502190503 | 11 | 214 | 0.0 | 3.2 | 0.00 | 0.00 | 0.00 | 83 | 966.9 |
| 20260502185505 | 11 | 201 | 0.0 | 3.2 | 0.00 | 0.00 | 0.00 | 83 | 967.0 |
| 20260502185003 | 11 | 200 | 0.0 | 3.2 | 0.00 | 0.00 | 0.00 | 83 | 967.0 |
| 20260502184713 | 11 | 201 | 0.0 | 3.2 | 0.00 | 0.00 | 0.00 | 83 | 967.0 |
| 20260502184005 | 11 | 183 | 0.0 | 3.2 | 0.00 | 0.00 | 0.00 | 82 | 966.8 |
| 20260502183503 | 11 | 176 | 0.0 | 3.2 | 0.00 | 0.00 | 0.00 | 83 | 966.9 |
| 20260502183005 | 11 | 191 | 0.0 | 3.2 | 0.00 | 0.00 | 0.00 | 83 | 966.5 |
| 20260502182503 | 11 | 223 | 0.0 | 1.6 | 0.00 | 0.00 | 0.00 | 83 | 966.8 |
| 20260502182003 | 11 | 211 | 0.0 | 1.6 | 0.00 | 0.00 | 0.00 | 83 | 966.7 |
| 20260502181505 | 11 | 209 | 0.0 | 3.2 | 0.00 | 0.00 | 0.00 | 83 | 966.9 |
| 20260502181003 | 12 | 209 | 0.0 | 3.2 | 0.00 | 0.00 | 0.00 | 82 | 966.8 |
| 20260502180503 | 12 | 206 | 0.0 | 3.2 | 0.00 | 0.00 | 0.00 | 81 | 966.7 |
| 20260502170503 | 14 | 215 | 1.6 | 3.2 | 0.00 | 0.00 | 0.00 | 74 | 966.6 |
| 20260502164003 | 17 | 215 | 1.6 | 6.4 | 0.00 | 0.00 | 0.00 | 61 | 966.5 |
| 20260502163503 | 17 | 208 | 1.6 | 6.4 | 0.00 | 0.00 | 0.00 | 56 | 966.6 |
| 20260502163005 | 18 | 200 | 1.6 | 4.8 | 0.00 | 0.00 | 0.00 | 56 | 966.6 |
| 20260502162714 | 20 | 202 | 1.6 | 4.8 | 0.00 | 0.00 | 0.00 | 49 | 966.5 |
| 20260502162003 | 21 | 205 | 1.6 | 4.8 | 0.00 | 0.00 | 0.00 | 40 | 966.5 |
| 20260502161505 | 22 | 201 | 1.6 | 6.4 | 0.00 | 0.00 | 0.00 | 39 | 966.6 |
| 20260502161003 | 22 | 204 | 1.6 | 6.4 | 0.00 | 0.00 | 0.00 | 40 | 966.7 |
| 20260502160505 | 22 | 208 | 1.6 | 4.8 | 0.00 | 0.00 | 0.00 | 39 | 966.8 |
| 20260502152005 | 22 | 209 | 1.6 | 6.4 | 0.00 | 0.00 | 0.00 | 37 | 967.0 |
| 20260502151503 | 22 | 210 | 1.6 | 6.4 | 0.00 | 0.00 | 0.00 | 36 | 967.2 |
| 20260502151005 | 23 | 290 | 1.6 | 9.7 | 0.00 | 0.00 | 0.00 | 35 | 967.3 |
| 20260502150503 | 22 | 231 | 3.2 | 12.9 | 0.00 | 0.00 | 0.00 | 40 | 967.0 |
| 20260502130505 | 21 | 260 | 3.2 | 16.1 | 0.00 | 0.00 | 0.00 | 42 | 968.2 |
| 20260502123503 | 21 | 204 | 3.2 | 12.9 | 0.00 | 0.00 | 0.00 | 39 | 968.6 |
| 20260502123005 | 21 | 229 | 1.6 | 4.8 | 0.00 | 0.00 | 0.00 | 41 | 968.7 |
| 20260502122713 | 21 | 219 | 3.2 | 9.7 | 0.00 | 0.00 | 0.00 | 39 | 968.9 |
| 20260502122003 | 21 | 205 | 4.8 | 12.9 | 0.00 | 0.00 | 0.00 | 41 | 968.8 |
| 20260502121505 | 21 | 205 | 3.2 | 12.9 | 0.00 | 0.00 | 0.00 | 41 | 968.7 |
| 20260502121004 | 21 | 212 | 3.2 | 11.3 | 0.00 | 0.00 | 0.00 | 42 | 968.8 |
| 20260502120713 | 21 | 228 | 3.2 | 11.3 | 0.00 | 0.00 | 0.00 | 41 | 968.9 |
| 20260502115503 | 20 | 208 | 3.2 | 11.3 | 0.00 | 0.00 | 0.00 | 42 | 969.1 |
| 20260502115003 | 20 | 202 | 3.2 | 11.3 | 0.00 | 0.00 | 0.00 | 43 | 969.0 |
| 20260502114505 | 20 | 207 | 3.2 | 11.3 | 0.00 | 0.00 | 0.00 | 42 | 969.1 |
| 20260502114003 | 20 | 212 | 3.2 | 11.3 | 0.00 | 0.00 | 0.00 | 43 | 969.1 |
| 20260502113505 | 20 | 200 | 3.2 | 11.3 | 0.00 | 0.00 | 0.00 | 43 | 969.3 |
| 20260502113004 | 20 | 268 | 3.2 | 11.3 | 0.00 | 0.00 | 0.00 | 43 | 969.4 |
| 20260502112505 | 20 | 306 | 3.2 | 11.3 | 0.00 | 0.00 | 0.00 | 43 | 969.4 |
| 20260502112003 | 20 | 293 | 3.2 | 11.3 | 0.00 | 0.00 | 0.00 | 43 | 969.3 |
| 20260502111503 | 20 | 250 | 1.6 | 6.4 | 0.00 | 0.00 | 0.00 | 43 | 969.4 |
| 20260502111005 | 20 | 262 | 1.6 | 6.4 | 0.00 | 0.00 | 0.00 | 43 | 969.6 |
| 20260502110503 | 20 | 264 | 1.6 | 4.8 | 0.00 | 0.00 | 0.00 | 41 | 969.5 |
| 20260502105503 | 20 | 234 | 3.2 | 11.3 | 0.00 | 0.00 | 0.00 | 43 | 969.8 |
| 20260502105005 | 20 | 272 | 1.6 | 6.4 | 0.00 | 0.00 | 0.00 | 42 | 969.8 |
| 20260502104503 | 20 | 277 | 1.6 | 6.4 | 0.00 | 0.00 | 0.00 | 45 | 969.8 |
| 20260502104005 | 20 | 300 | 3.2 | 9.7 | 0.00 | 0.00 | 0.00 | 44 | 969.8 |
| 20260502103503 | 20 | 248 | 3.2 | 9.7 | 0.00 | 0.00 | 0.00 | 45 | 969.9 |
| 20260502103213 | 19 | 223 | 3.2 | 9.7 | 0.00 | 0.00 | 0.00 | 44 | 970.1 |
| 20260502102505 | 19 | 211 | 3.2 | 9.7 | 0.00 | 0.00 | 0.00 | 45 | 970.1 |
| 20260502102003 | 19 | 227 | 1.6 | 9.7 | 0.00 | 0.00 | 0.00 | 44 | 970.0 |
| 20260502101503 | 20 | 144 | 1.6 | 9.7 | 0.00 | 0.00 | 0.00 | 46 | 970.1 |
| 20260502101005 | 20 | 308 | 1.6 | 9.7 | 0.00 | 0.00 | 0.00 | 46 | 970.3 |
| 20260502100503 | 19 | 294 | 1.6 | 9.7 | 0.00 | 0.00 | 0.00 | 45 | 970.4 |
| 20260502091503 | 18 | 231 | 1.6 | 9.7 | 0.00 | 0.00 | 0.00 | 43 | 971.0 |
| 20260502091003 | 19 | 238 | 1.6 | 6.4 | 0.00 | 0.00 | 0.00 | 45 | 970.9 |
| 20260502090505 | 18 | 257 | 1.6 | 6.4 | 0.00 | 0.00 | 0.00 | 43 | 970.8 |
| 20260502071505 | 10 | 0 | 0.0 | 0.0 | 0.00 | 0.00 | 0.00 | 74 | 971.7 |
| 20260502071004 | 10 | 0 | 0.0 | 0.0 | 0.00 | 0.00 | 0.00 | 74 | 971.8 |
| 20260502070505 | 10 | 0 | 0.0 | 0.0 | 0.00 | 0.00 | 0.00 | 76 | 971.7 |
| 20260502065713 | 9 | 0 | 0.0 | 0.0 | 0.00 | 0.00 | 0.00 | 77 | 971.9 |
| 20260502065005 | 9 | 0 | 0.0 | 0.0 | 0.00 | 0.00 | 0.00 | 78 | 971.9 |
| 20260502064503 | 8 | 0 | 0.0 | 0.0 | 0.00 | 0.00 | 0.00 | 81 | 971.9 |
| 20260502064003 | 7 | 0 | 0.0 | 0.0 | 0.00 | 0.00 | 0.00 | 83 | 971.9 |
| 20260502063715 | 7 | 0 | 0.0 | 0.0 | 0.00 | 0.00 | 0.00 | 86 | 971.8 |
| 20260502063003 | 7 | 0 | 0.0 | 0.0 | 0.00 | 0.00 | 0.00 | 89 | 972.1 |
| 20260502062504 | 6 | 0 | 0.0 | 0.0 | 0.00 | 0.00 | 0.00 | 89 | 972.0 |
| 20260502062003 | 6 | 0 | 0.0 | 0.0 | 0.00 | 0.00 | 0.00 | 91 | 971.9 |
| 20260502061505 | 6 | 0 | 0.0 | 0.0 | 0.00 | 0.00 | 0.00 | 94 | 972.0 |
| 20260502061003 | 5 | 0 | 0.0 | 0.0 | 0.00 | 0.00 | 0.00 | 94 | 971.9 |
| 20260502060503 | 5 | 0 | 0.0 | 0.0 | 0.00 | 0.00 | 0.00 | 94 | 972.1 |
| 20260502055503 | 5 | 0 | 0.0 | 0.0 | 0.00 | 0.00 | 0.00 | 96 | 972.0 |
| 20260502055003 | 4 | 0 | 0.0 | 0.0 | 0.00 | 0.00 | 0.00 | 97 | 972.2 |
| 20260502054505 | 4 | 0 | 0.0 | 0.0 | 0.00 | 0.00 | 0.00 | 97 | 972.1 |
| 20260502054003 | 4 | 0 | 0.0 | 0.0 | 0.00 | 0.00 | 0.00 | 97 | 972.2 |
| 20260502053503 | 3 | 0 | 0.0 | 0.0 | 0.00 | 0.00 | 0.00 | 97 | 972.3 |
| 20260502053215 | 3 | 0 | 0.0 | 0.0 | 0.00 | 0.00 | 0.00 | 97 | 972.3 |
| 20260502052503 | 3 | 0 | 0.0 | 0.0 | 0.00 | 0.00 | 0.00 | 97 | 972.2 |
| 20260502052003 | 3 | 0 | 0.0 | 0.0 | 0.00 | 0.00 | 0.00 | 97 | 972.1 |
| 20260502051716 | 3 | 0 | 0.0 | 0.0 | 0.00 | 0.00 | 0.00 | 97 | 972.3 |
| 20260502051003 | 3 | 0 | 0.0 | 0.0 | 0.00 | 0.00 | 0.00 | 97 | 972.1 |
| 20260502050503 | 3 | 0 | 0.0 | 0.0 | 0.00 | 0.00 | 0.00 | 97 | 972.3 |
| 20260502045503 | 3 | 0 | 0.0 | 0.0 | 0.00 | 0.00 | 0.00 | 97 | 972.3 |
| 20260502045003 | 3 | 0 | 0.0 | 0.0 | 0.00 | 0.00 | 0.00 | 97 | 972.1 |
| 20260502044505 | 2 | 0 | 0.0 | 0.0 | 0.00 | 0.00 | 0.00 | 97 | 972.2 |
| 20260502044003 | 3 | 0 | 0.0 | 0.0 | 0.00 | 0.00 | 0.00 | 97 | 972.2 |
| 20260502043714 | 2 | 0 | 0.0 | 0.0 | 0.00 | 0.00 | 0.00 | 97 | 972.2 |
| 20260502043005 | 2 | 0 | 0.0 | 0.0 | 0.00 | 0.00 | 0.00 | 97 | 972.2 |
| 20260502042714 | 2 | 0 | 0.0 | 0.0 | 0.00 | 0.00 | 0.00 | 97 | 972.3 |
| 20260502042003 | 2 | 211 | 0.0 | 3.2 | 0.00 | 0.00 | 0.00 | 97 | 972.3 |
| 20260502041716 | 2 | 211 | 0.0 | 3.2 | 0.00 | 0.00 | 0.00 | 97 | 972.3 |
| 20260502041003 | 2 | 0 | 0.0 | 0.0 | 0.00 | 0.00 | 0.00 | 97 | 972.3 |
| 20260502040503 | 2 | 211 | 0.0 | 3.2 | 0.00 | 0.00 | 0.00 | 97 | 972.3 |
| 20260502035503 | 2 | 0 | 0.0 | 0.0 | 0.00 | 0.00 | 0.00 | 97 | 972.1 |
| 20260502035003 | 2 | 211 | 0.0 | 1.6 | 0.00 | 0.00 | 0.00 | 97 | 972.1 |
| 20260502034504 | 2 | 211 | 0.0 | 1.6 | 0.00 | 0.00 | 0.00 | 97 | 971.9 |
| 20260502034003 | 2 | 0 | 0.0 | 0.0 | 0.00 | 0.00 | 0.00 | 97 | 972.0 |
| 20260502033505 | 2 | 0 | 0.0 | 0.0 | 0.00 | 0.00 | 0.00 | 97 | 971.9 |
| 20260502033003 | 2 | 0 | 0.0 | 0.0 | 0.00 | 0.00 | 0.00 | 96 | 972.0 |
| 20260502032503 | 2 | 211 | 0.0 | 1.6 | 0.00 | 0.00 | 0.00 | 96 | 972.0 |
| 20260502032005 | 3 | 211 | 0.0 | 1.6 | 0.00 | 0.00 | 0.00 | 96 | 972.1 |
| 20260502031503 | 2 | 0 | 0.0 | 0.0 | 0.00 | 0.00 | 0.00 | 96 | 972.1 |
| 20260502031003 | 3 | 211 | 0.0 | 1.6 | 0.00 | 0.00 | 0.00 | 96 | 972.1 |
| 20260502030505 | 3 | 211 | 0.0 | 1.6 | 0.00 | 0.00 | 0.00 | 96 | 972.1 |
| 20260502025715 | 3 | 0 | 0.0 | 0.0 | 0.00 | 0.00 | 0.00 | 96 | 972.2 |
| 20260502025003 | 3 | 210 | 0.0 | 3.2 | 0.00 | 0.00 | 0.00 | 96 | 972.1 |
| 20260502024505 | 3 | 210 | 0.0 | 3.2 | 0.00 | 0.00 | 0.00 | 96 | 972.3 |
| 20260502024003 | 3 | 0 | 0.0 | 0.0 | 0.00 | 0.00 | 0.00 | 96 | 972.1 |
| 20260502023503 | 3 | 208 | 0.0 | 1.6 | 0.00 | 0.00 | 0.00 | 96 | 972.3 |
| 20260502023005 | 3 | 208 | 0.0 | 1.6 | 0.00 | 0.00 | 0.00 | 96 | 972.2 |
| 20260502022503 | 3 | 207 | 0.0 | 3.2 | 0.00 | 0.00 | 0.00 | 96 | 972.2 |
| 20260502022214 | 3 | 204 | 0.0 | 3.2 | 0.00 | 0.00 | 0.00 | 96 | 972.1 |
| 20260502021505 | 3 | 202 | 0.0 | 3.2 | 0.00 | 0.00 | 0.00 | 96 | 972.3 |
| 20260502021214 | 3 | 203 | 0.0 | 1.6 | 0.00 | 0.00 | 0.00 | 96 | 972.2 |
| 20260502020503 | 3 | 203 | 0.0 | 1.6 | 0.00 | 0.00 | 0.00 | 96 | 972.3 |
| 20260502015503 | 3 | 200 | 0.0 | 3.2 | 0.00 | 0.00 | 0.00 | 96 | 972.1 |
| 20260502015003 | 3 | 0 | 0.0 | 0.0 | 0.00 | 0.00 | 0.00 | 95 | 972.2 |
| 20260502014715 | 3 | 0 | 0.0 | 0.0 | 0.00 | 0.00 | 0.00 | 95 | 972.1 |
| 20260502014214 | 3 | 0 | 0.0 | 0.0 | 0.00 | 0.00 | 0.00 | 95 | 972.3 |
| 20260502013503 | 3 | 0 | 0.0 | 0.0 | 0.00 | 0.00 | 0.00 | 95 | 972.2 |
| 20260502013005 | 3 | 210 | 0.0 | 3.2 | 0.00 | 0.00 | 0.00 | 95 | 972.3 |
| 20260502012503 | 3 | 210 | 0.0 | 3.2 | 0.00 | 0.00 | 0.00 | 95 | 972.3 |
| 20260502012213 | 3 | 210 | 0.0 | 3.2 | 0.00 | 0.00 | 0.00 | 95 | 972.2 |
| 20260502011505 | 3 | 0 | 0.0 | 0.0 | 0.00 | 0.00 | 0.00 | 95 | 972.3 |
| 20260502011003 | 3 | 0 | 0.0 | 0.0 | 0.00 | 0.00 | 0.00 | 95 | 972.2 |
| 20260502010505 | 3 | 0 | 0.0 | 0.0 | 0.00 | 0.00 | 0.00 | 95 | 972.3 |
| 20260502005503 | 3 | 0 | 0.0 | 0.0 | 0.00 | 0.00 | 0.00 | 95 | 972.4 |
| 20260502005005 | 3 | 0 | 0.0 | 0.0 | 0.00 | 0.00 | 0.00 | 94 | 972.6 |
| 20260502004503 | 3 | 0 | 0.0 | 0.0 | 0.00 | 0.00 | 0.00 | 95 | 972.5 |
| 20260502004003 | 3 | 0 | 0.0 | 0.0 | 0.00 | 0.00 | 0.00 | 94 | 972.5 |
| 20260502003505 | 3 | 0 | 0.0 | 0.0 | 0.00 | 0.00 | 0.00 | 94 | 972.7 |
| 20260502003003 | 3 | 0 | 0.0 | 0.0 | 0.00 | 0.00 | 0.00 | 94 | 972.8 |
| 20260502002503 | 3 | 0 | 0.0 | 0.0 | 0.00 | 0.00 | 0.00 | 94 | 972.8 |
| 20260502002005 | 3 | 0 | 0.0 | 0.0 | 0.00 | 0.00 | 0.00 | 94 | 972.7 |
| 20260502001714 | 3 | 0 | 0.0 | 0.0 | 0.00 | 0.00 | 0.00 | 94 | 972.7 |
| 20260502001215 | 3 | 0 | 0.0 | 0.0 | 0.00 | 0.00 | 0.00 | 94 | 972.8 |
| 20260502000503 | 3 | 0 | 0.0 | 0.0 | 0.00 | 0.00 | 0.00 | 94 | 972.8 |
| 20260501235503 | 3 | 210 | 0.0 | 1.6 | 0.00 | 0.00 | 0.00 | 93 | 972.9 |
| 20260501235003 | 3 | 0 | 0.0 | 0.0 | 0.00 | 0.00 | 0.00 | 93 | 973.0 |
| 20260501234505 | 3 | 0 | 0.0 | 0.0 | 0.00 | 0.00 | 0.00 | 93 | 972.8 |
| 20260501234003 | 3 | 0 | 0.0 | 0.0 | 0.00 | 0.00 | 0.00 | 93 | 973.0 |
| 20260501233503 | 3 | 0 | 0.0 | 0.0 | 0.00 | 0.00 | 0.00 | 93 | 972.9 |
| 20260501233005 | 3 | 0 | 0.0 | 0.0 | 0.00 | 0.00 | 0.00 | 93 | 972.8 |
| 20260501232503 | 4 | 0 | 0.0 | 0.0 | 0.00 | 0.00 | 0.00 | 93 | 973.0 |